Missed Pages

From Revolt Chat Fans Wiki
[ Popular | Recent | Ignored ]First pagePrevious pageNext pageLast page
ID Date and time Page
259110 2026-03-24 18:00:29 MediaWiki talk:Exif-sharpness-0
259109 2026-03-24 17:55:13 MediaWiki talk:Exif-photometricinterpretation-10
259108 2026-03-24 17:50:34 MediaWiki talk:Exif-photometricinterpretation-10
259107 2026-03-24 17:50:34 MediaWiki talk:Exif-iimcategory-hum
259106 2026-03-24 17:50:32 MediaWiki talk:Exif-gaincontrol-1
259105 2026-03-24 17:50:32 MediaWiki talk:Exif-exposuremode-0
259104 2026-03-24 17:50:32 MediaWiki talk:Exif-meteringmode-2
259103 2026-03-24 17:50:31 MediaWiki talk:Exif-copyrighted-true
259102 2026-03-24 17:49:38 MediaWiki talk:Exif-photometricinterpretation-5
259099 2026-03-24 17:49:37 MediaWiki talk:Exif-photometricinterpretation-6
259101 2026-03-24 17:49:37 MediaWiki talk:Exif-photometricinterpretation-8
259100 2026-03-24 17:49:37 MediaWiki talk:Exif-photometricinterpretation-0
259098 2026-03-24 17:49:31 MediaWiki talk:Exif-exposuremode-2
259097 2026-03-24 17:49:30 MediaWiki talk:Exif-gaincontrol-0
259096 2026-03-24 17:48:57 MediaWiki talk:Exif-gaincontrol-3
259095 2026-03-24 17:48:57 MediaWiki talk:Exif-gaincontrol-4
259094 2026-03-24 17:48:12 MediaWiki talk:Exif-customrendered-1
259093 2026-03-24 17:48:12 MediaWiki talk:Exif-specialinstructions
259092 2026-03-24 17:48:07 MediaWiki talk:Exporttext
259091 2026-03-24 17:48:07 MediaWiki talk:Externaldberror
259090 2026-03-24 17:48:07 MediaWiki talk:Exif-gaincontrol-2
259089 2026-03-24 17:48:07 MediaWiki talk:Exif-copyrighted-false
259088 2026-03-24 17:45:39 MediaWiki talk:Exif-compression-2
259087 2026-03-24 17:45:38 MediaWiki talk:Exporttext
259086 2026-03-24 17:43:50 MediaWiki talk:Exif-saturation
259085 2026-03-24 17:42:37 MediaWiki talk:Externaldberror
259084 2026-03-24 17:42:37 MediaWiki talk:Filehist-datetime
259077 2026-03-24 17:41:13 MediaWiki:Exif-gpsstatus
259078 2026-03-24 17:41:13 MediaWiki:Exif-orientation-7
259080 2026-03-24 17:41:13 MediaWiki:Exif-orientation-3
259081 2026-03-24 17:41:13 MediaWiki:Exif-planarconfiguration
259082 2026-03-24 17:41:13 MediaWiki:Exif-orientation-2
259083 2026-03-24 17:41:13 MediaWiki:Exif-gpslongitude-e
259079 2026-03-24 17:41:13 MediaWiki:Exif-orientation-4
259071 2026-03-24 17:41:12 MediaWiki:Exif-orientation-6
259066 2026-03-24 17:41:12 MediaWiki:Exif-meteringmode-1
259067 2026-03-24 17:41:12 MediaWiki:Exif-focalplanexresolution
259068 2026-03-24 17:41:12 MediaWiki:Exif-flashenergy
259069 2026-03-24 17:41:12 MediaWiki:Exif-morepermissionsurl
259070 2026-03-24 17:41:12 MediaWiki:Exif-flash-redeye-1
259072 2026-03-24 17:41:12 MediaWiki:Exif-orientation-1
259073 2026-03-24 17:41:12 MediaWiki:Exif-pdf-pagesize
259074 2026-03-24 17:41:12 MediaWiki:Exif-photometricinterpretation
259076 2026-03-24 17:41:12 MediaWiki:Exif-orientation-5
259075 2026-03-24 17:41:12 MediaWiki:Exif-orientation-8
259065 2026-03-24 17:41:11 MediaWiki:Exif-meteringmode-6
259064 2026-03-24 17:41:11 MediaWiki:Exif-iimcategory-rel
259063 2026-03-24 17:41:08 MediaWiki:Abusefilter-blocked-domains-attempted
259061 2026-03-24 17:40:50 MediaWiki:Exif-personinimage
259062 2026-03-24 17:40:50 MediaWiki:Exif-photometricinterpretation-1
First pagePrevious pageNext pageLast page